Overview Statistics Trail Chart Weather Telemetry Raw packets
 

This is the latest recevied weather packets stored in our database for station/object KD0SBN. If no packets are shown the sender has not sent any weather packets the latest 10 day(s).

<< 110 111 112 113 114 >>
Time Temp. Humidity Pressure Rain* Wind** Luminosity Snow
1787733030 18.89° C 73% 1025.1 hPa 0 mm - - -
1787732731 18.89° C 73% 1025.3 hPa 0 mm - - -
1787732430 19.44° C 73% 1025.3 hPa 0 mm - - -
1787732126 19.44° C 72% 1025.4 hPa 0 mm - - -
1787731823 18.89° C 73% 1025.5 hPa 0 mm - - -
1787731522 19.44° C 72% 1025.4 hPa 0 mm - - -
1787731217 20° C 71% 1025.6 hPa 0 mm - - -
1787730912 20° C 70% 1025.5 hPa 0 mm - - -
1787730607 19.44° C 72% 1025.7 hPa 0 mm - - -
1787730306 19.44° C 73% 1025.7 hPa 0 mm - - -
1787730001 20° C 72% 1025.8 hPa 0 mm - - -
1787729701 20.56° C 70% 1025.7 hPa 0 mm - - -
1787729396 20.56° C 70% 1025.8 hPa 0 mm - - -
1787729096 21.11° C 69% 1026 hPa 0 mm - - -
1787728790 20.56° C 72% 1026.1 hPa 0 mm - - -
1787728487 20.56° C 72% 1026 hPa 0 mm - - -
1787728182 20° C 72% 1026 hPa 0 mm - - -
1787727880 20° C 73% 1025.8 hPa 0 mm - - -
1787727576 19.44° C 76% 1025.8 hPa 0 mm - - -
1787727278 19.44° C 75% 1025.8 hPa 0 mm - - -
1787726970 19.44° C 75% 1025.8 hPa 0 mm - - -
1787726665 19.44° C 74% 1025.8 hPa 0 mm - - -
1787726361 18.89° C 76% 1026.1 hPa 0 mm - - -
1787726057 18.89° C 76% 1025.7 hPa 0 mm - - -
1787725752 18.89° C 76% 1026 hPa 0 mm - - -

* Rain latest hour (hover to see other rain measurements)
** Current wind speed in m/s (hover to see current wind gust speed)